Retour au catalogue

QIANFAN-44

ActifCommunicationsPO
NORAD 62245·PAYLOAD·🇨🇳 China

Lancé Dec 5, 2024 depuis Taiyuan Satellite Launch Center

Loading…

Prochains Passages (prochaines 24 heures)

TLE

FraisSource: Space-Track

Époque: Sep 14, 2026, 22:14 UTC

1 62245U 24232J   26257.92643540  .00000085  00000-0  11214-3 0  9992
2 62245  89.0160  13.3587 0015612 114.4087 245.8696 13.51029063136620

Suivez QIANFAN-44 en temps réel avec AllMySat

Download on the App Store